Time,TemperatureF,DewpointF,PressureIn,WindDirection,WindDirectionDegrees,WindSpeedMPH,WindSpeedGustMPH,Humidity,HourlyPrecipIn,Conditions,Clouds,dailyrainin,SoftwareType,DateUTC
2013-09-13 00:13:00,51.0,41.0,30.17,North,-999,-999.0,-999.0,69,-99.99,,,-99.99,,2013-09-13 05:13:00,
2013-09-13 00:22:00,52.0,42.0,30.17,North,-999,-999.0,-999.0,68,-99.99,,,-99.99,,2013-09-13 05:22:00,
2013-09-13 00:43:00,52.0,41.0,30.17,North,-999,-999.0,-999.0,67,-99.99,,,-99.99,,2013-09-13 05:43:00,
2013-09-13 00:53:00,52.0,41.0,30.17,North,-999,-999.0,-999.0,67,-99.99,,,-99.99,,2013-09-13 05:53:00,
2013-09-13 01:12:00,51.0,41.0,30.17,North,-999,-999.0,-999.0,69,-99.99,,,-99.99,,2013-09-13 06:12:00,
2013-09-13 01:22:00,51.0,42.0,30.17,North,-999,-999.0,-999.0,70,-99.99,,,-99.99,,2013-09-13 06:22:00,
2013-09-13 01:52:00,49.0,40.0,30.20,North,-999,-999.0,-999.0,72,-99.99,,,-99.99,,2013-09-13 06:52:00,
2013-09-13 02:11:00,49.0,41.0,30.17,North,-999,-999.0,-999.0,73,-99.99,,,-99.99,,2013-09-13 07:11:00,
2013-09-13 02:22:00,48.0,40.0,30.20,North,-999,-999.0,-999.0,74,-99.99,,,-99.99,,2013-09-13 07:22:00,
2013-09-13 02:42:00,48.0,40.0,30.20,North,-999,-999.0,-999.0,74,-99.99,,,-99.99,,2013-09-13 07:42:00,
2013-09-13 02:52:00,47.0,39.0,30.20,North,-999,-999.0,-999.0,75,-99.99,,,-99.99,,2013-09-13 07:52:00,
2013-09-13 03:11:00,47.0,40.0,30.20,North,-999,-999.0,-999.0,76,-99.99,,,-99.99,,2013-09-13 08:11:00,
2013-09-13 03:22:00,47.0,40.0,30.20,North,-999,-999.0,-999.0,77,-99.99,,,-99.99,,2013-09-13 08:22:00,
2013-09-13 03:42:00,45.0,38.0,30.20,North,-999,-999.0,-999.0,76,-99.99,,,-99.99,,2013-09-13 08:42:00,
2013-09-13 03:52:00,45.0,38.0,30.20,North,-999,-999.0,-999.0,77,-99.99,,,-99.99,,2013-09-13 08:52:00,
2013-09-13 04:12:00,45.0,39.0,30.20,North,-999,-999.0,-999.0,79,-99.99,,,-99.99,,2013-09-13 09:12:00,
2013-09-13 04:21:00,44.0,38.0,30.20,North,-999,-999.0,-999.0,79,-99.99,,,-99.99,,2013-09-13 09:21:00,
2013-09-13 04:43:00,44.0,38.0,30.20,North,-999,-999.0,-999.0,78,-99.99,,,-99.99,,2013-09-13 09:43:00,
2013-09-13 04:54:00,43.0,37.0,30.20,North,-999,-999.0,-999.0,79,-99.99,,,-99.99,,2013-09-13 09:54:00,
2013-09-13 05:13:00,43.0,37.0,30.20,North,-999,-999.0,-999.0,80,-99.99,,,-99.99,,2013-09-13 10:13:00,
2013-09-13 05:23:00,44.0,39.0,30.20,North,-999,-999.0,-999.0,82,-99.99,,,-99.99,,2013-09-13 10:23:00,
2013-09-13 05:42:00,44.0,39.0,30.20,North,-999,-999.0,-999.0,82,-99.99,,,-99.99,,2013-09-13 10:42:00,
2013-09-13 05:53:00,43.0,38.0,30.20,North,-999,-999.0,-999.0,82,-99.99,,,-99.99,,2013-09-13 10:53:00,
2013-09-13 06:12:00,43.0,38.0,30.20,North,-999,-999.0,-999.0,82,-99.99,,,-99.99,,2013-09-13 11:12:00,
2013-09-13 06:22:00,42.0,37.0,30.20,North,-999,-999.0,-999.0,83,-99.99,,,-99.99,,2013-09-13 11:22:00,
2013-09-13 06:42:00,42.0,36.0,30.20,North,-999,-999.0,-999.0,80,-99.99,,,-99.99,,2013-09-13 11:42:00,
2013-09-13 06:52:00,41.0,35.0,30.20,North,-999,-999.0,-999.0,80,-99.99,,,-99.99,,2013-09-13 11:52:00,
2013-09-13 07:12:00,42.0,37.0,30.20,North,-999,-999.0,-999.0,83,-99.99,,,-99.99,,2013-09-13 12:12:00,
2013-09-13 07:22:00,42.0,37.0,30.20,North,-999,-999.0,-999.0,83,-99.99,,,-99.99,,2013-09-13 12:22:00,
2013-09-13 07:42:00,43.0,38.0,30.23,North,-999,-999.0,-999.0,84,-99.99,,,-99.99,,2013-09-13 12:42:00,
2013-09-13 07:52:00,45.0,40.0,30.23,North,-999,-999.0,-999.0,83,-99.99,,,-99.99,,2013-09-13 12:52:00,
2013-09-13 08:11:00,47.0,41.0,30.23,North,-999,-999.0,-999.0,81,-99.99,,,-99.99,,2013-09-13 13:11:00,
2013-09-13 08:21:00,49.0,43.0,30.23,North,-999,-999.0,-999.0,79,-99.99,,,-99.99,,2013-09-13 13:21:00,
2013-09-13 08:52:00,51.0,43.0,30.23,North,-999,-999.0,-999.0,75,-99.99,,,-99.99,,2013-09-13 13:52:00,
2013-09-13 09:11:00,52.0,44.0,30.23,North,-999,-999.0,-999.0,74,-99.99,,,-99.99,,2013-09-13 14:11:00,
2013-09-13 09:22:00,53.0,44.0,30.23,North,-999,-999.0,-999.0,72,-99.99,,,-99.99,,2013-09-13 14:22:00,
2013-09-13 09:42:00,54.0,44.0,30.23,North,-999,-999.0,-999.0,70,-99.99,,,-99.99,,2013-09-13 14:42:00,
2013-09-13 09:52:00,55.0,45.0,30.23,North,-999,-999.0,-999.0,68,-99.99,,,-99.99,,2013-09-13 14:52:00,
2013-09-13 10:11:00,56.0,45.0,30.23,North,-999,-999.0,-999.0,66,-99.99,,,-99.99,,2013-09-13 15:11:00,
2013-09-13 10:22:00,56.0,44.0,30.23,North,-999,-999.0,-999.0,65,-99.99,,,-99.99,,2013-09-13 15:22:00,
2013-09-13 10:43:00,58.0,45.0,30.23,North,-999,-999.0,-999.0,61,-99.99,,,-99.99,,2013-09-13 15:43:00,
2013-09-13 10:53:00,58.0,44.0,30.23,North,-999,-999.0,-999.0,59,-99.99,,,-99.99,,2013-09-13 15:53:00,
2013-09-13 11:12:00,62.0,45.0,30.23,North,-999,-999.0,-999.0,54,-99.99,,,-99.99,,2013-09-13 16:12:00,
2013-09-13 11:24:00,63.0,46.0,30.23,North,-999,-999.0,-999.0,53,-99.99,,,-99.99,,2013-09-13 16:24:00,
2013-09-13 11:43:00,62.0,44.0,30.23,North,-999,-999.0,-999.0,52,-99.99,,,-99.99,,2013-09-13 16:43:00,
2013-09-13 11:54:00,63.0,45.0,30.23,North,-999,-999.0,-999.0,51,-99.99,,,-99.99,,2013-09-13 16:54:00,
2013-09-13 12:13:00,62.0,44.0,30.23,North,-999,-999.0,-999.0,51,-99.99,,,-99.99,,2013-09-13 17:13:00,
2013-09-13 12:24:00,62.0,43.0,30.23,North,-999,-999.0,-999.0,49,-99.99,,,-99.99,,2013-09-13 17:24:00,
2013-09-13 12:33:00,62.0,43.0,30.23,North,-999,-999.0,-999.0,49,-99.99,,,-99.99,,2013-09-13 17:33:00,
2013-09-13 12:44:00,62.0,43.0,30.23,North,-999,-999.0,-999.0,49,-99.99,,,-99.99,,2013-09-13 17:44:00,
2013-09-13 12:53:00,63.0,42.0,30.20,North,-999,-999.0,-999.0,46,-99.99,,,-99.99,,2013-09-13 17:53:00,
2013-09-13 13:12:00,64.0,43.0,30.20,North,-999,-999.0,-999.0,47,-99.99,,,-99.99,,2013-09-13 18:12:00,
2013-09-13 13:22:00,65.0,42.0,30.20,North,-999,-999.0,-999.0,43,-99.99,,,-99.99,,2013-09-13 18:22:00,
2013-09-13 13:42:00,65.0,43.0,30.20,North,-999,-999.0,-999.0,45,-99.99,,,-99.99,,2013-09-13 18:42:00,
2013-09-13 13:52:00,65.0,42.0,30.17,North,-999,-999.0,-999.0,43,-99.99,,,-99.99,,2013-09-13 18:52:00,
2013-09-13 14:11:00,66.0,43.0,30.17,North,-999,-999.0,-999.0,43,-99.99,,,-99.99,,2013-09-13 19:11:00,
2013-09-13 14:22:00,65.0,41.0,30.17,North,-999,-999.0,-999.0,41,-99.99,,,-99.99,,2013-09-13 19:22:00,
2013-09-13 14:43:00,66.0,40.0,30.17,North,-999,-999.0,-999.0,39,-99.99,,,-99.99,,2013-09-13 19:43:00,
2013-09-13 14:52:00,66.0,41.0,30.17,North,-999,-999.0,-999.0,40,-99.99,,,-99.99,,2013-09-13 19:52:00,
2013-09-13 15:11:00,67.0,41.0,30.17,North,-999,-999.0,-999.0,39,-99.99,,,-99.99,,2013-09-13 20:11:00,
2013-09-13 15:22:00,67.0,41.0,30.14,North,-999,-999.0,-999.0,39,-99.99,,,-99.99,,2013-09-13 20:22:00,
2013-09-13 15:52:00,68.0,41.0,30.14,North,-999,-999.0,-999.0,38,-99.99,,,-99.99,,2013-09-13 20:52:00,
2013-09-13 16:12:00,68.0,41.0,30.14,North,-999,-999.0,-999.0,37,-99.99,,,-99.99,,2013-09-13 21:12:00,
2013-09-13 16:22:00,68.0,40.0,30.14,North,-999,-999.0,-999.0,36,-99.99,,,-99.99,,2013-09-13 21:22:00,
2013-09-13 16:54:00,68.0,41.0,30.11,North,-999,-999.0,-999.0,38,-99.99,,,-99.99,,2013-09-13 21:54:00,
2013-09-13 17:13:00,68.0,41.0,30.11,North,-999,-999.0,-999.0,38,-99.99,,,-99.99,,2013-09-13 22:13:00,
2013-09-13 17:24:00,68.0,40.0,30.11,North,-999,-999.0,-999.0,36,-99.99,,,-99.99,,2013-09-13 22:24:00,
2013-09-13 17:43:00,68.0,42.0,30.11,North,-999,-999.0,-999.0,39,-99.99,,,-99.99,,2013-09-13 22:43:00,
2013-09-13 17:53:00,68.0,41.0,30.11,North,-999,-999.0,-999.0,38,-99.99,,,-99.99,,2013-09-13 22:53:00,
2013-09-13 18:12:00,67.0,41.0,30.11,North,-999,-999.0,-999.0,39,-99.99,,,-99.99,,2013-09-13 23:12:00,
2013-09-13 18:22:00,67.0,41.0,30.11,North,-999,-999.0,-999.0,38,-99.99,,,-99.99,,2013-09-13 23:22:00,
2013-09-13 18:42:00,66.0,40.0,30.08,North,-999,-999.0,-999.0,39,-99.99,,,-99.99,,2013-09-13 23:42:00,
2013-09-13 18:52:00,66.0,40.0,30.08,North,-999,-999.0,-999.0,39,-99.99,,,-99.99,,2013-09-13 23:52:00,
2013-09-13 19:12:00,65.0,40.0,30.08,North,-999,-999.0,-999.0,40,-99.99,,,-99.99,,2013-09-14 00:12:00,
2013-09-13 19:22:00,64.0,40.0,30.08,North,-999,-999.0,-999.0,42,-99.99,,,-99.99,,2013-09-14 00:22:00,
2013-09-13 19:42:00,60.0,40.0,30.08,North,-999,-999.0,-999.0,47,-99.99,,,-99.99,,2013-09-14 00:42:00,
2013-09-13 19:52:00,58.0,39.0,30.08,North,-999,-999.0,-999.0,50,-99.99,,,-99.99,,2013-09-14 00:52:00,
2013-09-13 20:11:00,56.0,39.0,30.08,North,-999,-999.0,-999.0,52,-99.99,,,-99.99,,2013-09-14 01:11:00,
2013-09-13 20:22:00,55.0,40.0,30.08,North,-999,-999.0,-999.0,56,-99.99,,,-99.99,,2013-09-14 01:22:00,
2013-09-13 20:42:00,54.0,39.0,30.08,North,-999,-999.0,-999.0,57,-99.99,,,-99.99,,2013-09-14 01:42:00,
2013-09-13 20:52:00,53.0,39.0,30.08,North,-999,-999.0,-999.0,60,-99.99,,,-99.99,,2013-09-14 01:52:00,
2013-09-13 21:12:00,52.0,39.0,30.08,North,-999,-999.0,-999.0,62,-99.99,,,-99.99,,2013-09-14 02:12:00,
2013-09-13 21:22:00,51.0,39.0,30.08,North,-999,-999.0,-999.0,64,-99.99,,,-99.99,,2013-09-14 02:22:00,
2013-09-13 21:42:00,50.0,38.0,30.08,North,-999,-999.0,-999.0,64,-99.99,,,-99.99,,2013-09-14 02:42:00,
2013-09-13 21:52:00,49.0,38.0,30.08,North,-999,-999.0,-999.0,66,-99.99,,,-99.99,,2013-09-14 02:52:00,
2013-09-13 22:12:00,49.0,39.0,30.08,North,-999,-999.0,-999.0,67,-99.99,,,-99.99,,2013-09-14 03:12:00,
2013-09-13 22:22:00,48.0,38.0,30.08,North,-999,-999.0,-999.0,69,-99.99,,,-99.99,,2013-09-14 03:22:00,
2013-09-13 22:55:00,48.0,39.0,30.08,North,-999,-999.0,-999.0,71,-99.99,,,-99.99,,2013-09-14 03:55:00,
2013-09-13 23:14:00,47.0,38.0,30.08,North,-999,-999.0,-999.0,70,-99.99,,,-99.99,,2013-09-14 04:14:00,
2013-09-13 23:24:00,47.0,38.0,30.08,North,-999,-999.0,-999.0,71,-99.99,,,-99.99,,2013-09-14 04:24:00,
2013-09-13 23:43:00,46.0,37.0,30.08,North,-999,-999.0,-999.0,72,-99.99,,,-99.99,,2013-09-14 04:43:00,
2013-09-13 23:54:00,45.0,37.0,30.08,North,-999,-999.0,-999.0,72,-99.99,,,-99.99,,2013-09-14 04:54:00,